Location: Czekanka
(50.4925°N, 19.2643°E)
Time: 12:00:10
(UTC+00:00)

NOSS 3-2 (A) - Pass Details

Date: 15 June 2024
Orbit: 705 x 1500 km, 63.4° (Epoch: 11 July)

Event Time Altitude Azimuth Distance (km) Brightness Sun altitude
Exits shadow 00:56:26 11° 236° (WSW) 2,296 4.9 -10.6°
Maximum altitude 01:01:39 67° 319° (NW) 957 3.6 -10.1°
Drops below altitude 10° 01:08:07 10° 42° (NE) 2,821 7.5 -9.6°
Sets 01:11:02 0° 45° (NE) 3,906 8.6 -9.3°
